Temperature
11 10 9 9 10 10 11 10 10 11 12 11 10 10 10 10 10 10 9 9 9 9 9 9 9 9 8 8 8 9 9 9 9 9 9 9 9 9 9 9 9 9 10 10
10 9 9 10 10 10 10 10 10 10 11 10 9 9 10 9 9 9 8 8 8 8 7 8 8 8 8 8 8 8 8 8 8 8 8 8 8 8 9 9 9 9 9 9
9 9 10 10 9 9 9 9 9 9 9 10 9 9 9 9 9 8 7 7 7 6 6 6 6 7 7 7 7 7 7 8 8 8 8 8 8 8 8 8 8 9 9 9
9 9 9 9 9 8 8 9 8 8 7 7 9 7 8 8 7 6 6 6 5 5 5 5 5 5 6 6 7 7 7 7 7 7 7 7 7 7 8 8 8 8 8 8
8 8 8 8 8 8 8 8 8 8 7 7 8 7 7 8 6 5 5 5 4 4 4 4 4 4 5 5 6 6 6 6 7 7 7 7 7 7 7 7 7 8 8 8
8 8 8 7 7 8 7 7 7 7 6 6 7 7 6 5 5 5 4 4 4 3 3 3 3 3 4 4 5 5 5 5 6 6 6 6 6 6 6 6 7 7 7 7
7 7 7 7 6 7 7 5 5 6 6 6 8 7 5 4 4 4 4 3 3 2 2 2 2 2 3 3 4 4 4 5 5 5 6 6 6 6 6 6 6 7 7 7
6 6 6 6 6 5 6 6 4 4 5 6 7 5 4 4 4 4 3 3 2 2 2 2 2 2 2 2 3 3 4 4 4 5 5 5 5 5 5 6 6 6 6 7
5 5 6 6 6 6 5 5 6 4 4 4 5 4 4 4 3 3 2 2 1 1 1 1 1 1 1 2 2 3 3 3 3 4 4 5 5 5 5 5 5 5 6 6
5 4 5 5 6 5 5 5 4 3 3 4 5 4 3 2 2 2 2 1 1 1 1 1 0 1 1 1 1 2 2 2 3 3 3 4 4 4 5 5 5 5 5 5
4 3 4 5 4 4 4 4 3 3 4 3 3 3 3 2 2 1 1 1 0 0 0 -0 -0 -0 -0 0 1 1 1 2 2 2 3 3 3 4 4 4 4 4 5 5
4 3 2 4 4 4 4 3 3 2 2 3 2 1 2 1 1 1 0 -0 -0 -1 -1 -1 -1 -1 -1 -1 -0 0 1 1 1 2 2 2 2 3 3 3 4 4 4 4
3 2 1 3 3 3 3 3 3 2 1 1 1 1 1 0 -0 -0 -1 -1 -1 -2 -2 -2 -2 -2 -2 -2 -1 -1 -0 0 0 1 1 2 2 2 2 3 3 3 3 4
3 1 1 1 2 2 2 2 2 1 -0 -0 0 -0 -0 -1 -1 -1 -2 -2 -2 -3 -3 -3 -3 -3 -3 -3 -2 -2 -1 -1 -0 0 0 1 1 1 1 2 2 3 3 3
2 0 1 1 2 2 1 1 1 0 -0 -1 -0 -1 -2 -2 -2 -2 -2 -3 -3 -3 -4 -4 -4 -4 -4 -4 -3 -3 -2 -2 -1 -1 -0 0 1 1 1 1 2 2 2 2
1 0 0 -0 1 1 1 1 0 0 -0 -1 -1 -2 -2 -2 -2 -3 -3 -3 -4 -4 -5 -5 -5 -5 -5 -4 -4 -3 -3 -2 -2 -1 -1 -0 -0 0 1 1 1 1 1 2
-0 -1 -1 -1 1 0 -1 -1 -1 -1 -2 -2 -3 -3 -3 -3 -3 -4 -4 -4 -5 -5 -5 -6 -6 -5 -5 -5 -4 -4 -3 -3 -3 -2 -2 -1 -1 -0 -0 0 0 1 1 1
-1 -1 -1 -1 -1 -2 -2 -1 -1 -2 -3 -3 -3 -3 -3 -4 -4 -4 -4 -5 -5 -6 -6 -6 -6 -6 -6 -5 -5 -4 -4 -3 -3 -3 -2 -2 -1 -1 -1 -1 -1 -0 -0 0
-1 -1 -2 -2 -2 -2 -2 -2 -2 -3 -4 -4 -4 -4 -4 -4 -4 -4 -5 -6 -6 -6 -7 -7 -7 -6 -6 -5 -5 -5 -4 -4 -3 -3 -3 -2 -2 -2 -2 -1 -1 -1 -1 -0
-1 -2 -3 -2 -3 -2 -3 -3 -2 -3 -5 -4 -4 -5 -5 -5 -6 -6 -6 -6 -7 -7 -7 -7 -7 -6 -6 -6 -6 -5 -5 -4 -4 -4 -3 -3 -3 -3 -2 -2 -2 -1 -1 -1
-3 -3 -3 -3 -3 -3 -4 -3 -3 -4 -5 -5 -5 -5 -6 -6 -7 -6 -7 -7 -7 -7 -7 -7 -7 -6 -6 -6 -6 -6 -5 -5 -5 -4 -4 -4 -3 -3 -3 -2 -2 -2 -1 -1
-3 -3 -3 -4 -4 -4 -4 -4 -5 -6 -5 -5 -6 -6 -7 -7 -7 -7 -7 -8 -8 -8 -8 -8 -7 -7 -7 -7 -6 -6 -6 -5 -5 -5 -5 -4 -4 -3 -3 -3 -3 -2 -2 -2
-3 -4 -4 -4 -5 -4 -4 -5 -5 -5 -6 -6 -7 -7 -7 -8 -8 -8 -8 -8 -8 -8 -8 -8 -8 -7 -7 -7 -7 -7 -6 -6 -5 -5 -5 -5 -4 -4 -4 -3 -3 -3 -3 -3
-4 -4 -4 -5 -5 -4 -4 -5 -5 -6 -6 -7 -7 -7 -8 -8 -8 -9 -9 -9 -9 -9 -9 -9 -8 -8 -8 -7 -7 -7 -7 -6 -6 -6 -5 -5 -5 -5 -4 -4 -4 -4 -3 -3
-4 -5 -5 -6 -5 -5 -5 -5 -6 -6 -7 -7 -8 -8 -8 -9 -9 -9 -9 -9 -10 -10 -9 -9 -9 -9 -8 -8 -7 -7 -7 -7 -7 -6 -6 -6 -5 -5 -5 -5 -4 -4 -4 -4
-5 -6 -6 -6 -6 -6 -6 -6 -7 -7 -8 -8 -8 -9 -9 -9 -9 -10 -10 -10 -10 -10 -9 -9 -9 -9 -8 -8 -8 -8 -8 -7 -7 -7 -7 -6 -6 -6 -5 -5 -5 -4 -4 -4
Wind_Speed
0 1 2 3 4 7 8 9 10 8 4 5 8 8 6 3 2 2 3 3 3 3 3 3 3 3 4 3 2 1 1 1 1 2 2 2 3 2 2 1 2 3 3 3
1 1 3 5 6 7 8 10 10 7 5 7 9 9 5 2 1 2 3 4 5 5 6 6 5 4 3 3 2 1 1 2 1 1 2 2 2 2 2 1 2 3 3 3
2 3 4 5 6 8 9 8 8 9 10 9 8 7 2 2 3 4 5 6 7 7 6 6 6 5 4 4 3 2 1 1 2 2 2 1 1 0 1 1 2 2 3 4
2 2 4 5 5 7 8 6 9 10 7 5 4 5 3 3 5 7 7 7 8 8 8 7 7 6 5 5 4 4 3 1 1 2 3 3 2 2 2 2 3 3 3 4
3 3 4 5 6 7 6 9 10 11 9 7 7 6 3 3 5 6 7 7 8 8 8 8 8 7 7 6 5 4 3 3 1 0 2 3 2 2 1 1 3 3 3 4
3 1 2 4 6 5 7 9 10 8 4 6 8 6 1 3 4 6 7 7 8 8 8 8 8 8 8 7 6 6 4 3 2 1 1 2 3 3 2 2 2 3 3 2
2 1 2 3 5 3 5 5 3 2 4 5 2 2 1 5 7 7 7 8 8 9 8 8 9 9 9 8 8 6 5 4 3 2 1 2 3 3 3 3 3 2 2 2
5 3 2 2 3 4 5 3 2 3 4 4 2 1 3 6 8 8 8 8 9 9 9 8 8 8 8 8 8 8 6 5 4 3 3 2 2 2 2 3 3 3 3 3
5 4 3 4 4 3 4 2 3 4 5 4 4 3 3 6 8 9 9 10 9 9 9 9 8 8 8 8 8 7 7 6 5 4 4 2 2 1 1 2 2 2 2 3
5 6 3 2 2 1 3 5 3 2 3 4 4 1 1 5 7 8 9 9 9 9 9 9 8 8 8 8 8 7 7 6 5 5 5 3 3 2 1 1 1 2 2 2
4 4 4 2 1 2 1 2 2 4 4 3 3 1 5 7 7 7 8 9 9 10 9 9 8 8 8 8 8 7 7 7 6 6 5 4 3 3 1 0 1 1 2 2
3 3 5 3 2 3 1 2 2 2 4 3 3 1 5 8 9 9 9 9 9 10 9 9 9 9 9 9 9 8 7 7 6 5 5 4 4 4 3 2 1 0 1 2
4 3 5 2 1 2 2 3 3 3 3 3 3 2 4 9 10 10 10 10 10 11 11 11 10 10 10 10 9 9 7 7 7 5 4 4 4 4 3 3 2 1 1 1
4 3 4 5 5 4 4 4 3 2 3 4 4 5 7 10 10 11 11 11 10 11 11 12 12 11 11 10 9 9 8 7 7 6 4 4 4 4 3 3 2 1 1 1
2 4 6 7 8 6 6 5 4 3 4 5 6 6 6 7 8 9 10 11 11 12 13 13 12 12 12 11 10 9 9 8 7 6 5 5 5 4 4 3 3 1 1 2
2 4 5 6 7 6 6 5 4 5 5 6 7 5 5 7 7 9 11 11 12 12 13 14 13 13 13 12 11 10 9 8 7 6 5 5 5 4 3 3 3 2 1 1
2 3 4 4 5 6 4 2 2 1 2 3 4 4 6 8 10 10 10 10 11 11 13 14 13 12 12 12 12 10 10 8 7 6 5 5 5 4 4 4 3 3 2 2
3 3 3 4 4 4 1 3 3 2 2 3 3 6 7 8 9 8 7 9 11 12 13 13 12 12 12 11 11 11 10 8 7 6 5 5 5 5 4 4 3 3 3 2
3 3 3 3 4 4 1 2 3 2 2 4 4 6 8 9 8 4 8 10 10 11 11 11 11 12 12 11 11 11 10 8 7 7 6 5 5 5 5 4 4 3 3 3
1 2 2 3 4 4 1 3 4 2 1 5 6 6 8 9 7 6 10 12 12 11 11 11 12 11 11 11 10 9 9 7 7 7 7 5 5 5 5 5 4 4 3 3
1 2 4 5 4 2 2 4 4 1 3 5 5 6 7 6 6 9 11 11 11 11 12 12 12 10 10 10 10 9 9 8 8 8 7 6 5 5 4 4 4 3 3 2
2 2 2 3 4 3 3 3 2 2 3 4 5 6 7 8 9 10 11 12 12 12 12 12 11 10 10 9 9 9 9 9 8 7 7 6 5 5 4 4 3 3 2 2
2 2 1 2 3 1 1 1 0 1 3 5 5 6 7 8 10 11 11 11 11 11 11 11 11 11 10 9 9 9 10 9 8 7 7 6 6 5 4 3 3 3 2 2
1 1 2 3 3 1 1 1 2 3 4 5 6 6 7 9 10 11 11 11 11 10 11 10 11 11 11 10 9 9 9 9 8 7 6 6 5 5 4 3 3 2 2 1
2 1 3 4 3 2 1 2 3 4 5 6 6 6 7 9 10 9 10 10 10 11 10 10 10 11 11 11 10 10 9 9 8 7 6 6 5 4 3 3 3 3 2 2
2 2 3 3 1 1 3 3 3 4 5 6 6 8 7 8 9 9 9 9 9 10 10 10 11 11 11 11 11 10 9 9 8 7 6 5 4 4 3 3 4 5 4 5
Wind_Direction
250 324 332 329 313 298 300 290 287 293 314 303 274 276 288 314 346 353 2 9 6 1 10 29 50 58 48 37 63 113 141 143 143 173 183 188 191 188 184 161 162 163 162 163
281 328 343 331 316 304 295 287 286 299 317 297 276 276 279 232 122 41 19 14 13 12 20 20 30 37 40 35 17 1 186 170 174 195 194 186 186 187 181 164 167 177 177 171
319 359 346 323 318 313 295 292 301 302 306 276 266 268 229 125 102 61 36 30 29 23 17 18 18 21 14 11 358 326 302 205 185 185 176 163 143 131 177 185 186 192 186 178
307 349 331 316 316 320 296 330 315 298 293 278 261 271 240 140 76 51 35 29 24 22 19 18 13 6 4 1 1 350 347 318 179 169 173 178 185 203 232 207 195 187 180 178
319 7 340 320 329 315 301 315 292 277 268 271 250 246 254 98 47 40 35 28 20 21 22 17 10 3 3 2 2 352 359 345 357 147 183 188 204 225 217 206 201 193 179 177
283 43 15 343 327 307 311 299 277 249 239 252 233 215 278 46 38 33 32 25 18 15 18 17 11 6 6 4 4 357 354 340 348 349 220 204 211 211 197 215 213 199 185 178
286 182 81 357 328 328 332 333 328 297 223 238 199 181 96 60 53 46 33 23 20 15 13 14 10 5 1 359 355 353 352 341 337 341 323 246 231 212 198 208 212 206 199 197
315 295 66 24 354 329 306 305 289 279 279 308 328 196 107 69 57 44 38 31 23 15 10 10 7 2 356 354 353 353 352 342 337 338 327 303 262 219 212 217 208 205 208 210
323 303 7 15 351 335 319 300 294 290 288 273 245 145 115 53 44 34 28 23 15 10 8 4 2 2 358 353 351 349 349 343 344 341 335 326 312 277 238 222 207 204 204 202
322 296 299 353 321 323 319 330 318 272 282 273 269 223 29 38 29 25 22 14 5 2 4 1 360 359 356 351 349 350 351 342 343 344 328 331 332 320 292 220 209 210 203 197
315 288 292 296 245 332 347 336 307 281 268 275 287 351 42 49 32 22 13 6 2 360 358 359 357 355 352 351 350 349 351 348 349 347 344 347 348 340 347 308 234 221 206 200
333 302 282 275 91 45 16 325 326 286 290 278 280 298 41 47 31 20 8 1 359 359 358 0 360 356 353 350 348 346 346 345 344 344 345 350 351 348 352 341 322 272 240 217
343 306 304 301 97 38 349 344 338 310 299 280 268 270 24 22 15 9 1 357 357 357 358 359 359 356 350 345 344 343 341 341 342 341 345 346 348 347 340 334 330 334 312 269
338 270 244 272 304 328 308 317 322 296 266 278 267 293 335 1 0 358 356 354 353 356 359 357 352 349 345 343 341 339 336 338 338 338 341 339 333 336 332 328 323 325 323 297
313 271 274 284 293 299 296 301 302 274 269 271 294 306 337 354 352 350 351 350 353 354 353 352 347 343 341 340 338 335 332 334 334 334 335 330 329 335 333 329 320 317 310 302
308 286 300 280 269 273 281 294 295 288 286 285 299 310 356 350 351 351 350 350 350 349 348 345 342 342 339 335 333 332 329 327 328 326 325 327 329 328 327 321 319 321 313 299
282 290 299 280 303 304 279 319 297 289 323 312 302 321 346 345 347 344 340 347 347 345 343 340 337 334 332 330 327 326 323 323 324 322 323 326 326 325 325 325 327 325 317 309
268 283 267 285 307 262 199 55 45 41 5 9 351 346 347 339 328 328 349 353 346 342 337 333 331 330 329 329 328 324 323 322 324 325 325 324 325 322 322 321 319 319 316 298
235 250 276 283 280 267 148 40 19 355 330 20 8 349 343 339 324 338 6 355 339 332 329 327 326 324 325 327 327 325 326 328 328 324 322 321 320 318 318 315 310 311 308 301
237 216 252 273 276 275 4 13 347 339 275 18 11 349 340 342 335 321 341 338 333 331 330 327 326 324 325 326 327 326 327 329 325 322 318 314 313 310 306 305 307 312 304 285
235 237 238 259 260 266 359 338 343 332 288 344 351 340 333 326 301 305 321 325 326 327 328 329 327 326 325 329 331 329 329 327 321 321 322 314 311 307 304 306 308 307 300 290
238 262 242 251 254 255 15 29 44 264 321 339 339 336 325 315 312 315 318 322 326 328 330 332 330 329 331 335 334 330 327 324 325 323 323 321 318 309 308 304 304 304 300 294
215 213 257 241 242 255 84 87 1 360 337 338 332 324 319 315 313 316 318 321 323 326 328 330 330 328 331 334 334 327 324 325 325 323 323 323 321 319 317 308 301 297 286 278
209 147 260 276 262 281 311 37 17 359 335 324 321 321 322 314 313 315 318 319 322 324 326 328 330 330 330 331 329 325 324 326 323 321 321 324 320 319 322 313 305 296 283 280
267 202 251 259 280 315 290 3 351 338 331 329 329 324 319 315 314 315 316 317 320 321 322 324 326 324 325 328 326 327 328 328 325 320 320 322 320 316 318 319 308 303 289 272
221 217 233 251 281 269 287 315 329 326 326 325 321 317 319 316 312 314 312 313 315 317 320 322 322 322 322 324 325 326 326 326 324 322 322 321 318 319 320 322 329 329 327 328
Height
1500 1503 1504 1503 1501 1500 1498 1497 1496 1492 1489 1491 1491 1489 1488 1487 1487 1487 1488 1489 1489 1489 1490 1489 1489 1490 1490 1490 1491 1492 1492 1494 1495 1496 1497 1498 1499 1500 1502 1504 1506 1507 1509 1510
1502 1505 1504 1502 1501 1499 1499 1498 1495 1492 1490 1491 1489 1487 1486 1485 1487 1488 1489 1489 1489 1489 1488 1488 1488 1488 1488 1488 1489 1489 1490 1491 1492 1493 1494 1495 1496 1497 1499 1501 1503 1504 1506 1507
1505 1506 1503 1502 1502 1501 1498 1498 1497 1497 1493 1489 1489 1488 1485 1484 1485 1488 1489 1490 1490 1489 1488 1487 1486 1486 1486 1486 1487 1487 1488 1488 1489 1490 1492 1493 1494 1494 1496 1497 1499 1501 1503 1504
1505 1504 1504 1504 1503 1503 1501 1497 1497 1496 1498 1497 1490 1496 1487 1485 1487 1489 1490 1491 1491 1490 1488 1487 1486 1486 1485 1485 1485 1485 1485 1485 1486 1487 1488 1489 1489 1490 1492 1494 1496 1498 1499 1501
1506 1505 1506 1505 1504 1504 1501 1498 1496 1494 1495 1497 1490 1494 1490 1485 1490 1492 1493 1493 1492 1491 1489 1488 1487 1486 1485 1484 1483 1483 1483 1482 1482 1483 1484 1486 1487 1488 1489 1491 1492 1494 1496 1498
1506 1506 1507 1507 1505 1503 1501 1497 1491 1490 1494 1499 1486 1491 1492 1493 1494 1494 1495 1494 1493 1492 1490 1489 1487 1486 1484 1483 1482 1481 1480 1480 1480 1480 1482 1483 1484 1485 1486 1487 1489 1490 1492 1493
1507 1506 1507 1507 1506 1504 1503 1505 1504 1500 1497 1492 1480 1488 1498 1497 1496 1497 1497 1496 1495 1493 1491 1489 1487 1485 1483 1481 1480 1479 1478 1477 1477 1478 1479 1480 1481 1482 1483 1484 1485 1486 1488 1489
1514 1512 1508 1508 1509 1510 1507 1506 1513 1514 1501 1492 1485 1493 1500 1497 1498 1498 1498 1497 1496 1494 1492 1490 1488 1485 1483 1480 1479 1477 1476 1475 1475 1475 1475 1477 1478 1479 1480 1481 1483 1484 1485 1486
1520 1515 1510 1509 1509 1509 1508 1507 1505 1509 1505 1504 1494 1495 1497 1497 1498 1499 1499 1498 1496 1494 1492 1490 1487 1485 1482 1480 1477 1476 1474 1474 1472 1472 1472 1473 1474 1475 1477 1478 1480 1481 1482 1483
1521 1520 1512 1510 1510 1510 1510 1509 1510 1511 1509 1505 1492 1495 1502 1501 1501 1500 1500 1499 1497 1495 1492 1490 1487 1484 1481 1479 1476 1474 1473 1471 1470 1470 1469 1469 1471 1472 1473 1475 1476 1478 1479 1480
1522 1523 1517 1512 1512 1513 1513 1513 1512 1511 1507 1510 1506 1508 1504 1505 1504 1504 1503 1501 1499 1496 1493 1490 1487 1484 1481 1478 1475 1473 1471 1469 1468 1467 1466 1466 1467 1469 1470 1471 1473 1474 1476 1477
1523 1524 1521 1513 1511 1511 1512 1513 1514 1520 1515 1509 1510 1516 1506 1506 1506 1506 1505 1502 1500 1497 1493 1490 1487 1484 1480 1477 1474 1471 1469 1468 1466 1465 1464 1464 1465 1465 1467 1468 1469 1471 1472 1473
1526 1527 1526 1517 1517 1516 1515 1513 1514 1516 1518 1516 1516 1517 1508 1508 1508 1507 1506 1503 1500 1496 1493 1490 1486 1483 1480 1477 1473 1471 1469 1467 1465 1463 1462 1462 1463 1463 1464 1464 1465 1467 1468 1469
1527 1527 1529 1527 1520 1518 1517 1516 1516 1518 1522 1519 1514 1515 1513 1512 1510 1509 1507 1504 1500 1497 1493 1490 1487 1483 1480 1477 1473 1470 1467 1465 1463 1462 1461 1460 1460 1461 1461 1462 1462 1463 1464 1465
1527 1528 1523 1521 1518 1517 1517 1516 1516 1518 1518 1520 1515 1515 1516 1515 1513 1511 1508 1504 1500 1497 1494 1490 1487 1483 1479 1475 1472 1469 1466 1464 1462 1460 1459 1458 1458 1458 1459 1459 1460 1460 1461 1462
1527 1528 1525 1522 1516 1515 1515 1515 1515 1515 1516 1516 1515 1516 1517 1516 1513 1511 1508 1504 1501 1498 1494 1491 1487 1482 1478 1474 1471 1468 1465 1462 1460 1458 1457 1456 1456 1456 1456 1457 1457 1457 1458 1459
1528 1529 1528 1522 1515 1515 1517 1517 1516 1517 1517 1518 1519 1520 1517 1515 1513 1511 1508 1505 1502 1498 1494 1490 1486 1482 1477 1473 1469 1466 1463 1461 1458 1456 1455 1454 1454 1453 1453 1454 1454 1454 1454 1455
1529 1529 1528 1524 1522 1526 1523 1517 1516 1518 1519 1519 1519 1519 1517 1516 1513 1511 1508 1505 1501 1498 1493 1489 1484 1479 1475 1471 1467 1464 1461 1458 1456 1454 1453 1452 1451 1451 1451 1451 1451 1451 1451 1452
1526 1529 1529 1527 1524 1519 1520 1518 1519 1520 1521 1521 1520 1519 1517 1515 1511 1508 1507 1504 1501 1497 1492 1488 1483 1478 1473 1469 1465 1461 1459 1456 1454 1452 1451 1450 1449 1448 1448 1448 1448 1449 1449 1449
1526 1527 1532 1528 1528 1523 1524 1521 1519 1520 1523 1521 1520 1519 1517 1514 1513 1509 1505 1502 1498 1494 1490 1485 1479 1475 1470 1466 1463 1459 1456 1454 1452 1450 1449 1448 1447 1446 1446 1446 1446 1446 1446 1446
1529 1530 1531 1530 1527 1524 1524 1521 1520 1526 1527 1522 1520 1519 1518 1516 1514 1509 1504 1500 1496 1491 1486 1481 1476 1472 1468 1464 1461 1457 1455 1452 1450 1448 1446 1445 1444 1444 1443 1443 1443 1443 1443 1444
1529 1530 1528 1528 1528 1529 1524 1521 1524 1526 1523 1521 1520 1518 1516 1513 1510 1506 1502 1498 1493 1488 1483 1478 1473 1469 1466 1462 1459 1455 1453 1451 1449 1446 1444 1443 1442 1441 1441 1441 1441 1441 1441 1441
1526 1528 1527 1528 1529 1524 1523 1522 1523 1522 1521 1520 1518 1516 1514 1510 1507 1503 1499 1495 1490 1486 1481 1476 1472 1468 1464 1461 1458 1454 1452 1449 1447 1444 1442 1440 1440 1439 1439 1438 1438 1438 1438 1438
1524 1524 1525 1525 1522 1522 1522 1521 1521 1520 1519 1518 1516 1514 1511 1508 1504 1500 1496 1492 1488 1483 1479 1474 1470 1466 1462 1459 1456 1453 1450 1448 1445 1442 1440 1439 1438 1437 1436 1436 1436 1435 1435 1435
1524 1524 1524 1523 1521 1521 1520 1520 1520 1518 1517 1515 1513 1511 1508 1505 1501 1498 1493 1489 1485 1481 1477 1473 1468 1464 1461 1457 1454 1451 1448 1446 1443 1440 1438 1437 1435 1434 1434 1433 1433 1433 1433 1433
1521 1523 1524 1522 1521 1521 1519 1518 1517 1516 1514 1512 1510 1507 1505 1502 1498 1494 1490 1487 1483 1478 1474 1470 1466 1462 1458 1455 1451 1448 1446 1443 1440 1438 1436 1434 1433 1432 1431 1431 1430 1430 1431 1431